When you browse on this site, cookies collect data to enhance your experience and personalize the content and advertising you see.
Visit our Privacy Policy to learn more. By continuing to use the site, you agree to this use of cookies and data.
  • En España
  • Lista de países
  • Para 7 días
  • Temperatura del agua
  • Mapa Satelital
  • El tiempo en el mapa
  • Informadores
  • user-avatar
    Iniciar sesión

    Tiempo cada hora Brisbane

    Hoy, 17 Julio, Miércoles

    Tiempo Temperatura Precipitaciones Viento Presión Humedad
    00:00 +12°C° 0 mm 2 mps 762 mmHg 66%
    01:00 +12°C° 0 mm 2 mps 762 mmHg 69%
    02:00 +10°C° 0 mm 2 mps 762 mmHg 71%
    03:00 +10°C° 0 mm 2 mps 762 mmHg 74%
    04:00 +10°C° 0 mm 2 mps 761 mmHg 74%
    05:00 +9°C° 0 mm 2 mps 762 mmHg 75%
    06:00 +9°C° 0 mm 2 mps 762 mmHg 75%
    07:00 +9°C° 0 mm 2 mps 762 mmHg 76%
    08:00 +12°C° 0 mm 2 mps 762 mmHg 66%
    09:00 +15°C° 0 mm 2 mps 762 mmHg 57%
    10:00 +19°C° 0 mm 1 mps 762 mmHg 45%
    11:00 +21°C° 0 mm 1 mps 762 mmHg 43%
    12:00 +22°C° 0 mm 1 mps 761 mmHg 41%
    13:00 +24°C° 0 mm 1 mps 760 mmHg 39%
    14:00 +23°C° 0 mm 1 mps 760 mmHg 41%
    15:00 +22°C° 0 mm 1 mps 760 mmHg 43%
    16:00 +22°C° 0 mm 1 mps 760 mmHg 46%
    17:00 +20°C° 0 mm 1 mps 760 mmHg 52%
    18:00 +17°C° 0 mm 2 mps 760 mmHg 58%
    19:00 +16°C° 0 mm 2 mps 761 mmHg 64%
    20:00 +15°C° 0 mm 2 mps 761 mmHg 64%
    21:00 +14°C° 0 mm 2 mps 761 mmHg 64%
    22:00 +14°C° 0 mm 2 mps 761 mmHg 65%
    23:00 +12°C° 0 mm 3 mps 761 mmHg 67%

    Mañana, 18 Julio, Jueves

    Tiempo Temperatura Precipitaciones Viento Presión Humedad
    00:00 +11°C° 0 mm 3 mps 761 mmHg 69%
    01:00 +11°C° 0 mm 3 mps 761 mmHg 72%
    02:00 +11°C° 0 mm 3 mps 761 mmHg 73%
    03:00 +10°C° 0 mm 4 mps 760 mmHg 75%
    04:00 +10°C° 0 mm 4 mps 760 mmHg 77%
    05:00 +10°C° 0 mm 4 mps 760 mmHg 75%
    06:00 +10°C° 0 mm 4 mps 761 mmHg 73%
    07:00 +10°C° 0 mm 4 mps 761 mmHg 71%
    08:00 +12°C° 0 mm 4 mps 761 mmHg 64%
    09:00 +14°C° 0 mm 3 mps 761 mmHg 56%
    10:00 +17°C° 0 mm 3 mps 761 mmHg 48%
    11:00 +18°C° 0 mm 3 mps 761 mmHg 42%
    12:00 +20°C° 0 mm 2 mps 760 mmHg 36%
    13:00 +21°C° 0 mm 2 mps 759 mmHg 29%
    14:00 +21°C° 0 mm 2 mps 759 mmHg 31%
    15:00 +22°C° 0 mm 1 mps 759 mmHg 32%
    16:00 +22°C° 0 mm 1 mps 760 mmHg 34%
    17:00 +20°C° 0 mm 1 mps 760 mmHg 42%
    18:00 +18°C° 0 mm 1 mps 761 mmHg 51%
    19:00 +15°C° 0 mm 2 mps 761 mmHg 59%
    20:00 +14°C° 0 mm 1 mps 762 mmHg 62%
    21:00 +13°C° 0 mm 1 mps 762 mmHg 65%
    22:00 +13°C° 0 mm 1 mps 763 mmHg 67%
    23:00 +12°C° 0 mm 1 mps 763 mmHg 69%

    Pasado mañana, 19 Julio, Viernes

    Tiempo Temperatura Precipitaciones Viento Presión Humedad
    00:00 +12°C° 0 mm 1 mps 762 mmHg 70%
    01:00 +10°C° 0 mm 2 mps 762 mmHg 71%
    02:00 +10°C° 0 mm 2 mps 762 mmHg 73%
    03:00 +9°C° 0 mm 2 mps 762 mmHg 74%
    04:00 +9°C° 0 mm 2 mps 762 mmHg 76%
    05:00 +9°C° 0 mm 2 mps 763 mmHg 76%
    06:00 +9°C° 0 mm 2 mps 763 mmHg 77%
    07:00 +9°C° 0 mm 2 mps 764 mmHg 77%
    08:00 +12°C° 0 mm 2 mps 764 mmHg 68%
    09:00 +15°C° 0 mm 2 mps 764 mmHg 60%
    10:00 +17°C° 0 mm 2 mps 764 mmHg 51%
    11:00 +20°C° 0 mm 1 mps 763 mmHg 45%
    12:00 +21°C° 0 mm 1 mps 762 mmHg 40%
    13:00 +21°C° 0 mm 0 mps 762 mmHg 35%
    14:00 +22°C° 0 mm 1 mps 762 mmHg 37%
    15:00 +22°C° 0 mm 1 mps 762 mmHg 39%
    16:00 +21°C° 0 mm 1 mps 762 mmHg 40%
    17:00 +19°C° 0 mm 1 mps 762 mmHg 48%
    18:00 +18°C° 0 mm 1 mps 763 mmHg 55%
    19:00 +15°C° 0 mm 1 mps 764 mmHg 63%
    20:00 +14°C° 0 mm 1 mps 764 mmHg 66%
    21:00 +14°C° 0 mm 1 mps 764 mmHg 69%
    22:00 +13°C° 0 mm 1 mps 765 mmHg 73%
    23:00 +13°C° 0 mm 1 mps 765 mmHg 74%

    20 Julio, Sábado

    Tiempo Temperatura Precipitaciones Viento Presión Humedad
    00:00 +12°C° 0 mm 1 mps 765 mmHg 75%
    01:00 +12°C° 0 mm 1 mps 765 mmHg 76%
    02:00 +12°C° 0 mm 1 mps 765 mmHg 76%
    03:00 +10°C° 0 mm 2 mps 765 mmHg 76%
    04:00 +10°C° 0 mm 2 mps 765 mmHg 76%
    05:00 +10°C° 0 mm 2 mps 765 mmHg 77%
    06:00 +10°C° 0 mm 2 mps 766 mmHg 77%
    07:00 +9°C° 0 mm 2 mps 766 mmHg 77%
    08:00 +13°C° 0 mm 1 mps 766 mmHg 69%
    09:00 +16°C° 0 mm 1 mps 766 mmHg 60%
    10:00 +19°C° 0 mm 1 mps 766 mmHg 52%
    11:00 +19°C° 0 mm 2 mps 766 mmHg 51%
    12:00 +20°C° 0 mm 2 mps 765 mmHg 49%
    13:00 +21°C° 0 mm 2 mps 764 mmHg 48%
    14:00 +21°C° 0 mm 2 mps 764 mmHg 50%
    15:00 +20°C° 0 mm 2 mps 764 mmHg 53%
    16:00 +20°C° 0 mm 2 mps 763 mmHg 55%
    17:00 +18°C° 0 mm 2 mps 764 mmHg 62%
    18:00 +17°C° 0 mm 2 mps 764 mmHg 68%
    19:00 +15°C° 0 mm 1 mps 765 mmHg 74%
    20:00 +15°C° 0 mm 1 mps 765 mmHg 76%
    21:00 +14°C° 0 mm 1 mps 765 mmHg 78%
    22:00 +14°C° 0 mm 1 mps 765 mmHg 80%
    23:00 +13°C° 0 mm 1 mps 765 mmHg 81%

    21 Julio, Domingo

    Tiempo Temperatura Precipitaciones Viento Presión Humedad
    00:00 +13°C° 0 mm 1 mps 765 mmHg 82%
    01:00 +12°C° 0 mm 1 mps 765 mmHg 84%
    02:00 +12°C° 0 mm 1 mps 765 mmHg 85%
    03:00 +12°C° 0 mm 1 mps 764 mmHg 85%
    04:00 +11°C° 0 mm 1 mps 764 mmHg 86%
    05:00 +11°C° 0 mm 1 mps 765 mmHg 86%
    06:00 +11°C° 0 mm 1 mps 765 mmHg 86%
    07:00 +11°C° 0 mm 1 mps 765 mmHg 86%
    08:00 +14°C° 0 mm 1 mps 765 mmHg 76%
    09:00 +16°C° 0 mm 1 mps 765 mmHg 65%
    10:00 +20°C° 0 mm 1 mps 765 mmHg 55%
    11:00 +21°C° 0 mm 1 mps 764 mmHg 50%
    12:00 +22°C° 0 mm 1 mps 763 mmHg 45%
    13:00 +23°C° 0 mm 1 mps 762 mmHg 41%
    14:00 +21°C° 0 mm 2 mps 762 mmHg 43%
    15:00 +21°C° 0 mm 2 mps 762 mmHg 45%
    16:00 +20°C° 0 mm 2 mps 762 mmHg 47%
    17:00 +19°C° 0 mm 2 mps 762 mmHg 55%
    18:00 +17°C° 0 mm 2 mps 763 mmHg 63%
    19:00 +15°C° 0 mm 2 mps 763 mmHg 70%
    20:00 +15°C° 0 mm 2 mps 763 mmHg 74%
    21:00 +14°C° 0 mm 1 mps 763 mmHg 77%
    22:00 +14°C° 0 mm 1 mps 764 mmHg 80%
    23:00 +13°C° 0 mm 1 mps 763 mmHg 81%

    22 Julio, Lunes

    Tiempo Temperatura Precipitaciones Viento Presión Humedad
    00:00 +13°C° 0 mm 1 mps 763 mmHg 82%
    01:00 +13°C° 0 mm 1 mps 763 mmHg 83%
    02:00 +13°C° 0 mm 1 mps 763 mmHg 84%
    03:00 +12°C° 0 mm 1 mps 763 mmHg 84%
    04:00 +12°C° 0 mm 1 mps 763 mmHg 84%
    05:00 +12°C° 0 mm 1 mps 763 mmHg 84%
    06:00 +12°C° 0 mm 1 mps 764 mmHg 85%
    07:00 +12°C° 0 mm 1 mps 764 mmHg 85%
    08:00 +14°C° 0 mm 1 mps 764 mmHg 76%
    09:00 +18°C° 0 mm 1 mps 764 mmHg 66%
    10:00 +20°C° 0 mm 1 mps 764 mmHg 57%
    11:00 +22°C° 0 mm 1 mps 764 mmHg 53%
    12:00 +23°C° 0 mm 1 mps 763 mmHg 48%
    13:00 +24°C° 0 mm 1 mps 762 mmHg 44%
    14:00 +24°C° 0 mm 1 mps 762 mmHg 46%
    15:00 +23°C° 0 mm 2 mps 762 mmHg 48%
    16:00 +21°C° 0 mm 2 mps 762 mmHg 51%
    17:00 +20°C° 0 mm 2 mps 762 mmHg 60%
    18:00 +18°C° 0 mm 2 mps 763 mmHg 69%
    19:00 +17°C° 0 mm 2 mps 763 mmHg 79%
    20:00 +16°C° 0 mm 2 mps 763 mmHg 81%
    21:00 +16°C° 0 mm 1 mps 763 mmHg 82%
    22:00 +15°C° 0 mm 1 mps 764 mmHg 84%
    23:00 +15°C° 0 mm 1 mps 764 mmHg 85%
    Mostrar más